Simultaneous Nadir Overpasses (SNOs) Predictions

Prediction of SNOs between LANDSAT-8 and NOAA-19 Satellite Orbit:

Table of predicted SNOs for the next 14.0 days since TLE Epoch: 2/10/2017
Index Date (LANDSAT-8) Time (LANDSAT-8) Lat,Lon (LANDSAT-8) SZA (LANDSAT-8 ) Date (NOAA-19) Time (NOAA-19) Lat,Lon (NOAA-19) SZA (NOAA-19 ) Distance(km) Time Diff (sec)
1 02/11/2017 04:52:58 -75.75, -65.80 90.34 02/11/2017 04:52:20 -75.73, -65.85 90.36 2.94 38
2 02/11/2017 05:42:25 75.69, 101.65 89.59 02/11/2017 05:43:20 75.69, 101.54 89.59 3.00 55
3 02/13/2017 10:26:41 75.74, 30.72 88.91 02/13/2017 10:26:14 75.72, 30.76 88.89 1.91 27
4 02/13/2017 11:16:10 -75.66,-161.87 91.19 02/13/2017 11:17:13 -75.67,-161.80 91.18 1.89 63
5 02/15/2017 16:00:25 -75.76, 127.35 91.84 02/15/2017 16:00:07 -75.73, 127.33 91.87 3.73 18
6 02/15/2017 16:49:53 75.64, -65.36 88.03 02/15/2017 16:51:06 75.59, -64.96 87.99 12.22 73
7 02/17/2017 21:34:08 75.74,-136.16 87.36 02/17/2017 21:34:02 75.72,-136.07 87.35 2.76 6
8 02/17/2017 22:23:45 -75.27, 30.15 93.14 02/17/2017 22:24:52 -75.31, 32.57 93.06 68.30 67
9 02/20/2017 02:18:14 76.27, 154.40 87.14 02/20/2017 02:17:09 76.34, 151.01 87.17 89.84 65
10 02/20/2017 03:07:52 -75.76, -39.53 93.41 02/20/2017 03:07:54 -75.74, -39.53 93.43 2.25 2
11 02/22/2017 07:52:04 -76.00,-109.89 93.96 02/22/2017 07:50:53 -76.03,-111.23 93.95 36.23 71
12 02/22/2017 08:41:35 75.72, 56.93 85.74 02/22/2017 08:41:50 75.73, 57.06 85.76 3.77 15




NCC Satellite Simultaneous Nadir Overpasses (SNOs) Prediction Service
